Weather History for KCUT - October, 2014

Change the Weather History Date:

Tuesday, October 28, 2014

  Actual Average Record
Temperature  
Mean Temperature 36 °F 39 °F  
Max Temperature 46 °F 50 °F 74 °F (1983)
Min Temperature 26 °F 28 °F 8 °F (1963)
Degree Days  
Heating Degree Days 29 26  
Month to date heating degree days 464 614  
Since 1 July heating degree days 880 1100  
Cooling Degree Days 0 0  
Month to date cooling degree days 0 0  
Year to date cooling degree days 152 177  
Moisture  
Dew Point 15 °F    
Average Humidity 44    
Maximum Humidity 63    
Minimum Humidity 25    
Precipitation  
Precipitation 0.00 in 0.02 in 0.74 in (1989)
Month to date precipitation 0.21 1.41  
Year to date precipitation 19.14 17.90  
Sea Level Pressure  
Sea Level Pressure 30.13 in    
Wind  
Wind Speed 8 mph (WNW)    
Max Wind Speed 22 mph    
Max Gust Speed 32 mph    
Visibility 10 miles    
Events      
T = Trace of Precipitation, MM = Missing Value Source: NWS Daily Summary

Daily Weather History Graph

Daily Weather History Graph

Search for Another Location

Airport or City:

Trip Planner

Search our weather history database for the weather conditions in past years. The results will help you decide how hot, cold, wet, or windy it might be!

Date:

Astronomy

Oct. 28, 2014 Rise Set
Actual Time 7:25 AM MDT 5:50 PM MDT
Civil Twilight 6:55 AM MDT 6:20 PM MDT
Nautical Twilight 6:21 AM MDT 6:53 PM MDT
Astronomical Twilight 5:48 AM MDT 7:27 PM MDT
Moon 11:59 AM MDT 9:55 PM MDT
Length of Visible Light 11h 24m
Length of Day
10h 25m
Waxing Crescent, 25% of the Moon is Illuminated
Oct 28
Waxing Crescent
Oct 30
First Quarter
Nov 6
Full
Nov 14
Last Quarter
Nov 22
New

Hourly Weather History & Observations

Time (MDT) Temp. Windchill Dew Point Humidity Pressure Visibility Wind Dir Wind Speed Gust Speed Precip Events Conditions
12:53 AM 32.0 °F 27.5 °F 17.1 °F 54% 30.02 in 10.0 mi NW 4.6 mph - N/A   Scattered Clouds
1:53 AM 33.1 °F 26.1 °F 17.1 °F 52% 30.04 in 10.0 mi WNW 8.1 mph - N/A   Clear
2:53 AM 32.0 °F 23.6 °F 16.0 °F 52% 30.05 in 10.0 mi WNW 10.4 mph 20.7 mph N/A   Clear
3:53 AM 28.9 °F 20.4 °F 16.0 °F 58% 30.05 in 10.0 mi WNW 9.2 mph - N/A   Clear
4:53 AM 27.0 °F 20.5 °F 16.0 °F 63% 30.08 in 10.0 mi West 5.8 mph - N/A   Clear
5:53 AM 26.1 °F 16.2 °F 15.1 °F 63% 30.12 in 10.0 mi West 10.4 mph - N/A   Clear
6:53 AM 27.0 °F 18.0 °F 12.9 °F 56% 30.12 in 10.0 mi West 9.2 mph - N/A   Clear
7:53 AM 27.0 °F 20.5 °F 14.0 °F 58% 30.14 in 10.0 mi West 5.8 mph - N/A   Clear
8:53 AM 30.0 °F 21.7 °F 14.0 °F 51% 30.16 in 10.0 mi WNW 9.2 mph 20.7 mph N/A   Clear
9:53 AM 36.0 °F 26.0 °F 15.1 °F 43% 30.13 in 10.0 mi WNW 17.3 mph 27.6 mph N/A   Clear
10:53 AM 39.0 °F 30.6 °F 15.1 °F 38% 30.13 in 10.0 mi WNW 15.0 mph 25.3 mph N/A   Clear
11:53 AM 41.0 °F 34.3 °F 14.0 °F 33% 30.12 in 10.0 mi NW 11.5 mph 24.2 mph N/A   Clear
12:53 PM 43.0 °F 36.0 °F 16.0 °F 34% 30.12 in 10.0 mi NW 13.8 mph 27.6 mph N/A   Clear
1:53 PM 44.1 °F 36.5 °F 15.1 °F 31% 30.10 in 10.0 mi NW 17.3 mph 27.6 mph N/A   Clear
2:53 PM 45.0 °F 38.9 °F 12.9 °F 27% 30.09 in 10.0 mi NW 12.7 mph 19.6 mph N/A   Clear
3:53 PM 44.1 °F 38.6 °F 10.9 °F 26% 30.12 in 10.0 mi WNW 10.4 mph - N/A   Clear
4:53 PM 43.0 °F 37.2 °F 10.9 °F 27% 30.15 in 10.0 mi NW 10.4 mph - N/A   Clear
5:53 PM 37.0 °F - 14.0 °F 39% 30.19 in 10.0 mi Calm Calm - N/A   Clear
6:53 PM 32.0 °F - 12.9 °F 45% 30.21 in 10.0 mi Calm Calm - N/A   Clear
7:53 PM 28.9 °F - 12.9 °F 51% 30.23 in 10.0 mi Calm Calm - N/A   Clear
8:53 PM 28.0 °F 22.8 °F 12.9 °F 53% 30.22 in 10.0 mi SW 4.6 mph - N/A   Clear
9:53 PM 30.0 °F 25.2 °F 17.1 °F 59% 30.19 in 10.0 mi WSW 4.6 mph - N/A   Clear
10:53 PM 28.9 °F 23.9 °F 16.0 °F 58% 30.19 in 10.0 mi SW 4.6 mph - N/A   Clear
11:53 PM 28.0 °F 22.8 °F 16.0 °F 61% 30.17 in 10.0 mi WSW 4.6 mph - N/A   Clear